| time (UTC) | temp C | wind direction | speed KPH | gust KPH | rain 1hr cm | rain 24hr cm | rain mn cm | humidity % | barometer mb |
| 20260507060036 | 23 | 34 | 6.4 | 17.7 | 0.00 | 0.00 | 0.00 | 86 | 1010.2 |
| 20260507054537 | 23 | 19 | 9.7 | 19.3 | 0.00 | 0.00 | 0.00 | 86 | 1010.1 |
| 20260507053026 | 23 | 12 | 4.8 | 17.7 | 0.00 | 0.00 | 0.00 | 87 | 1010.2 |
| 20260507051521 | 23 | 19 | 8.0 | 19.3 | 0.00 | 0.00 | 0.00 | 88 | 1010.1 |
| 20260507050036 | 23 | 331 | 4.8 | 17.7 | 0.00 | 0.00 | 0.00 | 87 | 1010.3 |
| 20260507044522 | 24 | 323 | 6.4 | 16.1 | 0.00 | 0.00 | 0.00 | 87 | 1010.2 |
| 20260507043013 | 24 | 319 | 9.7 | 24.1 | 0.00 | 0.00 | 0.00 | 87 | 1010.3 |
| 20260507041511 | 25 | 298 | 8.0 | 17.7 | 0.00 | 0.00 | 0.00 | 92 | 1010.1 |
| 20260507040013 | 25 | 262 | 1.6 | 6.4 | 0.00 | 0.00 | 0.00 | 92 | 1009.8 |
| 20260507034506 | 25 | 237 | 0.0 | 3.2 | 0.00 | 0.00 | 0.00 | 92 | 1009.6 |
| 20260507033004 | 25 | 234 | 0.0 | 0.0 | 0.00 | 0.00 | 0.00 | 92 | 1009.3 |
| 20260507031506 | 25 | 234 | 0.0 | 0.0 | 0.00 | 0.00 | 0.00 | 91 | 1009.0 |
| 20260507030004 | 25 | 234 | 0.0 | 0.0 | 0.00 | 0.00 | 0.00 | 91 | 1008.8 |
| 20260507024502 | 25 | 234 | 0.0 | 0.0 | 0.00 | 0.00 | 0.00 | 91 | 1008.6 |
| 20260507023002 | 26 | 234 | 0.0 | 0.0 | 0.00 | 0.00 | 0.00 | 90 | 1008.5 |
| 20260507021613 | 26 | 234 | 0.0 | 0.0 | 0.00 | 0.00 | 0.00 | 90 | 1008.3 |
| 20260507020101 | 26 | 232 | 0.0 | 0.0 | 0.00 | 0.00 | 0.00 | 90 | 1008.0 |
| 20260507014602 | 26 | 201 | 0.0 | 0.0 | 0.00 | 0.00 | 0.00 | 89 | 1007.8 |
| 20260507013100 | 26 | 201 | 0.0 | 1.6 | 0.00 | 0.00 | 0.00 | 88 | 1007.7 |
| 20260507011604 | 26 | 238 | 0.0 | 0.0 | 0.00 | 0.00 | 0.00 | 88 | 1007.4 |
| 20260507004558 | 26 | 200 | 0.0 | 0.0 | 0.00 | 0.00 | 0.00 | 87 | 1007.2 |
| 20260507003057 | 26 | 200 | 0.0 | 0.0 | 0.00 | 0.00 | 0.00 | 87 | 1007.0 |
| 20260507001605 | 27 | 231 | 0.0 | 3.2 | 0.00 | 0.00 | 0.00 | 86 | 1006.9 |
| 20260507000058 | 27 | 171 | 0.0 | 1.6 | 0.00 | 0.00 | 0.00 | 86 | 1006.9 |
| 20260506234624 | 27 | 213 | 0.0 | 0.0 | 0.00 | 0.00 | 0.00 | 85 | 1006.7 |
| 20260506233057 | 27 | 138 | 0.0 | 0.0 | 0.00 | 0.00 | 0.00 | 85 | 1006.9 |
| 20260506231556 | 27 | 113 | 0.0 | 0.0 | 0.00 | 0.00 | 0.00 | 84 | 1006.7 |
| 20260506230058 | 27 | 209 | 0.0 | 0.0 | 0.00 | 0.00 | 0.00 | 84 | 1006.6 |
| 20260506224555 | 27 | 200 | 0.0 | 3.2 | 0.00 | 0.00 | 0.00 | 84 | 1006.5 |
| 20260506223059 | 27 | 163 | 0.0 | 3.2 | 0.00 | 0.00 | 0.00 | 83 | 1006.5 |
| 20260506221555 | 27 | 206 | 0.0 | 8.0 | 0.00 | 0.00 | 0.00 | 83 | 1006.7 |
| 20260506220053 | 27 | 140 | 0.0 | 3.2 | 0.00 | 0.00 | 0.00 | 83 | 1006.6 |
| 20260506214552 | 28 | 171 | 0.0 | 3.2 | 0.00 | 0.00 | 0.00 | 82 | 1006.6 |
| 20260506213054 | 28 | 113 | 0.0 | 4.8 | 0.00 | 0.00 | 0.00 | 81 | 1006.6 |
| 20260506211550 | 29 | 131 | 0.0 | 3.2 | 0.00 | 0.00 | 0.00 | 81 | 1006.6 |
| 20260506210047 | 28 | 192 | 0.0 | 8.0 | 0.00 | 0.00 | 0.00 | 82 | 1006.6 |
| 20260506204555 | 28 | 167 | 0.0 | 3.2 | 0.00 | 0.00 | 0.00 | 82 | 1006.8 |
| 20260506203045 | 28 | 138 | 0.0 | 3.2 | 0.00 | 0.00 | 0.00 | 82 | 1006.9 |
| 20260506201543 | 28 | 125 | 0.0 | 4.8 | 0.00 | 0.00 | 0.00 | 83 | 1007.1 |
| 20260506200055 | 27 | 130 | 0.0 | 3.2 | 0.00 | 0.00 | 0.00 | 84 | 1007.3 |
| 20260506194548 | 27 | 131 | 0.0 | 3.2 | 0.00 | 0.00 | 0.00 | 84 | 1007.4 |
| 20260506194519 | 27 | 131 | 0.0 | 3.2 | 0.00 | 0.00 | 0.00 | 84 | 1007.4 |
| 20260506193039 | 27 | 182 | 0.0 | 4.8 | 0.00 | 0.00 | 0.00 | 84 | 1007.6 |
| 20260506191539 | 28 | 204 | 0.0 | 1.6 | 0.00 | 0.00 | 0.00 | 84 | 1007.8 |
| 20260506190039 | 28 | 86 | 0.0 | 0.0 | 0.00 | 0.00 | 0.00 | 84 | 1008.0 |
| 20260506184536 | 27 | 141 | 0.0 | 1.6 | 0.00 | 0.00 | 0.00 | 85 | 1008.1 |
| 20260506183038 | 27 | 152 | 0.0 | 1.6 | 0.00 | 0.00 | 0.00 | 85 | 1008.2 |
| 20260506181536 | 27 | 152 | 0.0 | 1.6 | 0.00 | 0.00 | 0.00 | 84 | 1008.5 |
| 20260506180033 | 27 | 154 | 0.0 | 1.6 | 0.00 | 0.00 | 0.00 | 83 | 1008.5 |
| 20260506174532 | 27 | 198 | 0.0 | 3.2 | 0.00 | 0.00 | 0.00 | 84 | 1008.5 |
| 20260506173030 | 27 | 204 | 0.0 | 1.6 | 0.00 | 0.00 | 0.00 | 84 | 1008.8 |
| 20260506171539 | 27 | 146 | 0.0 | 6.4 | 0.00 | 0.00 | 0.00 | 84 | 1008.8 |
| 20260506170027 | 27 | 192 | 0.0 | 3.2 | 0.00 | 0.00 | 0.00 | 86 | 1009.1 |
| 20260506164524 | 26 | 150 | 0.0 | 0.0 | 0.00 | 0.00 | 0.00 | 87 | 1009.0 |
| 20260506163022 | 26 | 123 | 0.0 | 0.0 | 0.00 | 0.00 | 0.00 | 89 | 1008.9 |
| 20260506161520 | 26 | 92 | 0.0 | 1.6 | 0.00 | 0.00 | 0.00 | 89 | 1008.8 |
| 20260506160031 | 26 | 127 | 0.0 | 1.6 | 0.00 | 0.00 | 0.00 | 90 | 1008.9 |
| 20260506154513 | 26 | 162 | 0.0 | 1.6 | 0.00 | 0.00 | 0.00 | 90 | 1008.5 |
| 20260506153009 | 26 | 171 | 0.0 | 0.0 | 0.00 | 0.00 | 0.00 | 90 | 1008.4 |
| 20260506151508 | 26 | 98 | 0.0 | 1.6 | 0.00 | 0.00 | 0.00 | 91 | 1008.2 |
| 20260506150017 | 26 | 142 | 0.0 | 0.0 | 0.00 | 0.00 | 0.00 | 91 | 1008.0 |
| 20260506144506 | 25 | 142 | 0.0 | 0.0 | 0.00 | 0.00 | 0.00 | 91 | 1007.8 |
| 20260506143027 | 25 | 142 | 0.0 | 0.0 | 0.00 | 0.00 | 0.00 | 91 | 1007.8 |
| 20260506141505 | 25 | 141 | 0.0 | 0.0 | 0.00 | 0.00 | 0.00 | 91 | 1008.0 |
| 20260506140007 | 25 | 73 | 0.0 | 0.0 | 0.00 | 0.00 | 0.00 | 92 | 1008.1 |
| 20260506134502 | 25 | 73 | 0.0 | 0.0 | 0.00 | 0.00 | 0.00 | 92 | 1008.0 |
| 20260506133059 | 25 | 73 | 0.0 | 0.0 | 0.00 | 0.00 | 0.00 | 93 | 1008.2 |
| 20260506131559 | 25 | 69 | 0.0 | 0.0 | 0.00 | 0.00 | 0.00 | 93 | 1008.2 |
| 20260506130118 | 25 | 69 | 0.0 | 0.0 | 0.00 | 0.00 | 0.00 | 93 | 1008.1 |
| 20260506124552 | 25 | 55 | 0.0 | 0.0 | 0.00 | 0.00 | 0.00 | 93 | 1008.0 |
| 20260506123050 | 25 | 50 | 0.0 | 0.0 | 0.00 | 0.00 | 0.00 | 93 | 1007.9 |
| 20260506121548 | 25 | 125 | 0.0 | 0.0 | 0.00 | 0.00 | 0.00 | 93 | 1007.8 |
| 20260506120047 | 25 | 124 | 0.0 | 0.0 | 0.00 | 0.00 | 0.00 | 94 | 1007.6 |
| 20260506114548 | 24 | 128 | 0.0 | 0.0 | 0.00 | 0.00 | 0.00 | 94 | 1007.3 |
| 20260506113047 | 24 | 102 | 0.0 | 0.0 | 0.00 | 0.00 | 0.00 | 94 | 1007.1 |
| 20260506111545 | 24 | 192 | 0.0 | 0.0 | 0.00 | 0.00 | 0.00 | 93 | 1006.9 |
| 20260506110051 | 24 | 217 | 0.0 | 0.0 | 0.00 | 0.00 | 0.00 | 93 | 1006.9 |
| 20260506104544 | 24 | 225 | 0.0 | 0.0 | 0.00 | 0.00 | 0.00 | 93 | 1007.0 |
| 20260506103047 | 24 | 225 | 0.0 | 0.0 | 0.00 | 0.00 | 0.00 | 93 | 1007.0 |
| 20260506101553 | 24 | 211 | 0.0 | 0.0 | 0.00 | 0.00 | 0.00 | 92 | 1006.9 |
| 20260506100043 | 24 | 127 | 0.0 | 0.0 | 0.00 | 0.00 | 0.00 | 92 | 1006.8 |
| 20260506094552 | 24 | 202 | 0.0 | 0.0 | 0.00 | 0.00 | 0.00 | 92 | 1006.6 |
| 20260506093044 | 24 | 202 | 0.0 | 0.0 | 0.00 | 0.00 | 0.00 | 92 | 1006.8 |
| 20260506091539 | 25 | 202 | 0.0 | 0.0 | 0.00 | 0.00 | 0.00 | 92 | 1006.8 |
| 20260506090040 | 25 | 202 | 0.0 | 0.0 | 0.00 | 0.00 | 0.00 | 92 | 1006.7 |
| 20260506084538 | 25 | 130 | 0.0 | 1.6 | 0.00 | 0.00 | 0.00 | 91 | 1006.9 |
| 20260506083036 | 25 | 163 | 0.0 | 1.6 | 0.00 | 0.00 | 0.00 | 91 | 1007.0 |
| 20260506081534 | 25 | 121 | 0.0 | 1.6 | 0.00 | 0.00 | 0.00 | 91 | 1007.1 |
| 20260506073029 | 25 | 100 | 0.0 | 6.4 | 0.00 | 0.00 | 0.00 | 91 | 1007.7 |
| 20260506071528 | 25 | 156 | 0.0 | 4.8 | 0.00 | 0.00 | 0.00 | 91 | 1007.8 |
| 20260506061525 | 25 | 182 | 0.0 | 1.6 | 0.00 | 0.00 | 0.00 | 90 | 1007.7 |